Location: Eastlake (historical)
(39.0077°N, 122.6678°W)
Time: 17:04:02
(UTC+00:00)

Cosmos 1745 Rocket - Pass Details

Date: 25 November 2020
Orbit: 952 x 999 km, 83.0° (Epoch: 22 January)

Event Time Altitude Azimuth Distance (km) Brightness Sun altitude
Rises 13:18:20 0° 211° (SSW) 3,657 6.8 -20.4°
Reaches altitude 10° 13:21:04 10° 220° (SW) 2,721 6.1 -19.9°
Maximum altitude 13:26:41 35° 285° (WNW) 1,547 4.5 -18.8°
Drops below altitude 10° 13:32:25 10° 349° (N) 2,763 6.1 -17.8°
Sets 13:35:13 0° 359° (N) 3,721 6.9 -17.2°
